Location: Oberwangen
(47.4286°N, 8.9679°E)
Time: 05:12:23
(UTC+00:00)

Cosmos 1464 Rocket - Visible Passes

Search period start: 26 October 2021 00:00
Search period end: 05 November 2021 00:00
Orbit: 953 x 1001 km, 82.9° (Epoch: 25 October)

Date Brightness Start Highest point End Pass type
(mag) Time Alt. Az. Time Alt. Az. Time Alt. Az.
29 Oct 6.9 05:04:15 10° NE 05:05:12 10° NE 05:06:10 10° ENE visible
30 Oct 6.5 05:27:35 10° NNE 05:31:46 18° ENE 05:35:57 10° ESE visible
02 Nov 6.6 04:59:55 10° NNE 05:03:41 16° ENE 05:07:27 10° E visible
03 Nov 6.2 05:24:48 10° N 05:30:05 26° ENE 05:35:19 10° ESE visible
